sat.trackr.live / text

‹ back to catalog

TJS-11

NORAD 59020 · 2024-037A

PAYLOAD ACTIVE UNKNOWN

§ Identity

Operator
Country
PRC
Launch date
2024-02-23
Launch site
WSC
Launch vehicle
Mass (kg)
RCS (m²)

Purposes: comms

External: N2YO · Heavens-Above · Gunter

§ Orbital elements

Epoch: 2026-05-25T00:53:36.004128Z

Period
1,436.03 min
Inclination
4.2287°
Eccentricity
0.0004052
Mean motion
1.00276291 rev/d
Perigee alt
35,768.2 km
Apogee alt
35,802.4 km
Semi-major
42,163.5 km
B*
0.0000e+0
RAAN
326.8118°
Arg perigee
107.3543°
Mean anomaly
302.1673°
Rev number
835

§ Raw data

TJS-111 59020U 24037A   26145.03722227 -.00000377  00000+0  00000+0 0  99912 59020   4.2287 326.8118 0004052 107.3543 302.1673  1.00276291  8350

JSON: /api/v1/satellites/59020 · /tle

For live sub-satellite position, see the globe view (requires WebGL).

§ Visibility from observer

Set your observer location to see the next 7 days of passes ≥ 10°. The values pass through the URL so the page stays shareable.

No JS? Fill the form by hand. The geolocation button needs JavaScript.